﻿測定場所 (Monitoring sites),日付 (Measurement date),時間 (Measurement time),線量率 最大値 (max) μGy/h,線量率 最小値 (min) μGy/h,線量率 平均値 (average) μGy/h,
調布 (Chofu),2022-06-05,23:01～24:00,0.0284,0.0250,0.0265,
調布 (Chofu),2022-06-05,22:01～23:00,0.0291,0.0242,0.0262,
調布 (Chofu),2022-06-05,21:01～22:00,0.0283,0.0247,0.0266,
調布 (Chofu),2022-06-05,20:01～21:00,0.0280,0.0248,0.0263,
調布 (Chofu),2022-06-05,19:01～20:00,0.0289,0.0248,0.0264,
調布 (Chofu),2022-06-05,18:01～19:00,0.0277,0.0241,0.0264,
調布 (Chofu),2022-06-05,17:01～18:00,0.0285,0.0239,0.0264,
調布 (Chofu),2022-06-05,16:01～17:00,0.0284,0.0248,0.0265,
調布 (Chofu),2022-06-05,15:01～16:00,0.0290,0.0244,0.0265,
調布 (Chofu),2022-06-05,14:01～15:00,0.0280,0.0245,0.0263,
調布 (Chofu),2022-06-05,13:01～14:00,0.0290,0.0251,0.0266,
調布 (Chofu),2022-06-05,12:01～13:00,0.0285,0.0249,0.0264,
調布 (Chofu),2022-06-05,11:01～12:00,0.0287,0.0242,0.0267,
調布 (Chofu),2022-06-05,10:01～11:00,0.0290,0.0247,0.0265,
調布 (Chofu),2022-06-05,09:01～10:00,0.0288,0.0247,0.0265,
調布 (Chofu),2022-06-05,08:01～09:00,0.0288,0.0239,0.0265,
調布 (Chofu),2022-06-05,07:01～08:00,0.0291,0.0249,0.0268,
調布 (Chofu),2022-06-05,06:01～07:00,0.0294,0.0251,0.0271,
調布 (Chofu),2022-06-05,05:01～06:00,0.0293,0.0244,0.0268,
調布 (Chofu),2022-06-05,04:01～05:00,0.0288,0.0245,0.0267,
調布 (Chofu),2022-06-05,03:01～04:00,0.0292,0.0248,0.0272,
調布 (Chofu),2022-06-05,02:01～03:00,0.0287,0.0251,0.0267,
調布 (Chofu),2022-06-05,01:01～02:00,0.0282,0.0245,0.0263,
調布 (Chofu),2022-06-05,00:01～01:00,0.0292,0.0250,0.0263,
調布 (Chofu),2022-06-04,23:01～24:00,0.0282,0.0249,0.0266,
調布 (Chofu),2022-06-04,22:01～23:00,0.0281,0.0251,0.0265,
調布 (Chofu),2022-06-04,21:01～22:00,0.0277,0.0249,0.0262,
調布 (Chofu),2022-06-04,20:01～21:00,0.0280,0.0243,0.0260,
調布 (Chofu),2022-06-04,19:01～20:00,0.0284,0.0242,0.0261,
調布 (Chofu),2022-06-04,18:01～19:00,0.0285,0.0243,0.0263,
調布 (Chofu),2022-06-04,17:01～18:00,0.0285,0.0242,0.0262,
調布 (Chofu),2022-06-04,16:01～17:00,0.0280,0.0245,0.0263,
調布 (Chofu),2022-06-04,15:01～16:00,0.0283,0.0249,0.0264,
調布 (Chofu),2022-06-04,14:01～15:00,0.0280,0.0245,0.0263,
調布 (Chofu),2022-06-04,13:01～14:00,0.0284,0.0245,0.0264,
調布 (Chofu),2022-06-04,12:01～13:00,0.0281,0.0247,0.0265,
調布 (Chofu),2022-06-04,11:01～12:00,0.0278,0.0246,0.0263,
調布 (Chofu),2022-06-04,10:01～11:00,0.0279,0.0247,0.0264,
調布 (Chofu),2022-06-04,09:01～10:00,0.0287,0.0245,0.0264,
調布 (Chofu),2022-06-04,08:01～09:00,0.0282,0.0248,0.0261,
調布 (Chofu),2022-06-04,07:01～08:00,0.0283,0.0239,0.0263,
調布 (Chofu),2022-06-04,06:01～07:00,0.0280,0.0237,0.0262,
調布 (Chofu),2022-06-04,05:01～06:00,0.0284,0.0247,0.0264,
調布 (Chofu),2022-06-04,04:01～05:00,0.0286,0.0248,0.0265,
調布 (Chofu),2022-06-04,03:01～04:00,0.0282,0.0247,0.0262,
調布 (Chofu),2022-06-04,02:01～03:00,0.0284,0.0246,0.0263,
調布 (Chofu),2022-06-04,01:01～02:00,0.0278,0.0241,0.0260,
調布 (Chofu),2022-06-04,00:01～01:00,0.0280,0.0244,0.0260,
調布 (Chofu),2022-06-03,23:01～24:00,0.0277,0.0243,0.0262,
調布 (Chofu),2022-06-03,22:01～23:00,0.0288,0.0247,0.0267,
調布 (Chofu),2022-06-03,21:01～22:00,0.0288,0.0254,0.0271,
調布 (Chofu),2022-06-03,20:01～21:00,0.0314,0.0266,0.0289,
調布 (Chofu),2022-06-03,19:01～20:00,0.0321,0.0278,0.0303,
調布 (Chofu),2022-06-03,18:01～19:00,0.0333,0.0281,0.0305,
調布 (Chofu),2022-06-03,17:01～18:00,0.0424,0.0309,0.0361,
調布 (Chofu),2022-06-03,16:01～17:00,0.0456,0.0262,0.0367,
調布 (Chofu),2022-06-03,15:01～16:00,0.0311,0.0262,0.0286,
調布 (Chofu),2022-06-03,14:01～15:00,0.0408,0.0288,0.0348,
調布 (Chofu),2022-06-03,13:01～14:00,0.0520,0.0397,0.0462,
調布 (Chofu),2022-06-03,12:01～13:00,0.0470,0.0255,0.0301,
調布 (Chofu),2022-06-03,11:01～12:00,0.0291,0.0253,0.0271,
調布 (Chofu),2022-06-03,10:01～11:00,0.0285,0.0256,0.0270,
調布 (Chofu),2022-06-03,09:01～10:00,0.0292,0.0252,0.0275,
調布 (Chofu),2022-06-03,08:01～09:00,0.0303,0.0261,0.0276,
調布 (Chofu),2022-06-03,07:01～08:00,0.0303,0.0258,0.0281,
調布 (Chofu),2022-06-03,06:01～07:00,0.0300,0.0267,0.0282,
調布 (Chofu),2022-06-03,05:01～06:00,0.0294,0.0258,0.0279,
調布 (Chofu),2022-06-03,04:01～05:00,0.0302,0.0256,0.0276,
調布 (Chofu),2022-06-03,03:01～04:00,0.0288,0.0260,0.0274,
調布 (Chofu),2022-06-03,02:01～03:00,0.0293,0.0256,0.0272,
調布 (Chofu),2022-06-03,01:01～02:00,0.0285,0.0244,0.0269,
調布 (Chofu),2022-06-03,00:01～01:00,0.0285,0.0251,0.0268,
調布 (Chofu),2022-06-02,23:01～24:00,0.0287,0.0247,0.0264,
調布 (Chofu),2022-06-02,22:01～23:00,0.0282,0.0250,0.0266,
調布 (Chofu),2022-06-02,21:01～22:00,0.0277,0.0242,0.0261,
調布 (Chofu),2022-06-02,20:01～21:00,0.0284,0.0245,0.0264,
調布 (Chofu),2022-06-02,19:01～20:00,0.0282,0.0250,0.0267,
調布 (Chofu),2022-06-02,18:01～19:00,0.0286,0.0252,0.0267,
調布 (Chofu),2022-06-02,17:01～18:00,0.0294,0.0247,0.0265,
調布 (Chofu),2022-06-02,16:01～17:00,0.0279,0.0249,0.0262,
調布 (Chofu),2022-06-02,15:01～16:00,0.0281,0.0249,0.0265,
調布 (Chofu),2022-06-02,14:01～15:00,0.0289,0.0249,0.0265,
調布 (Chofu),2022-06-02,13:01～14:00,0.0277,0.0248,0.0263,
調布 (Chofu),2022-06-02,12:01～13:00,0.0287,0.0249,0.0265,
調布 (Chofu),2022-06-02,11:01～12:00,0.0283,0.0243,0.0260,
調布 (Chofu),2022-06-02,10:01～11:00,0.0287,0.0252,0.0266,
調布 (Chofu),2022-06-02,09:01～10:00,0.0288,0.0250,0.0269,
調布 (Chofu),2022-06-02,08:01～09:00,0.0292,0.0249,0.0273,
調布 (Chofu),2022-06-02,07:01～08:00,0.0296,0.0263,0.0278,
調布 (Chofu),2022-06-02,06:01～07:00,0.0299,0.0264,0.0283,
調布 (Chofu),2022-06-02,05:01～06:00,0.0299,0.0266,0.0284,
調布 (Chofu),2022-06-02,04:01～05:00,0.0301,0.0256,0.0278,
調布 (Chofu),2022-06-02,03:01～04:00,0.0297,0.0247,0.0274,
調布 (Chofu),2022-06-02,02:01～03:00,0.0286,0.0250,0.0270,
調布 (Chofu),2022-06-02,01:01～02:00,0.0282,0.0245,0.0266,
調布 (Chofu),2022-06-02,00:01～01:00,0.0279,0.0247,0.0265,
調布 (Chofu),2022-06-01,23:01～24:00,0.0283,0.0244,0.0266,
調布 (Chofu),2022-06-01,22:01～23:00,0.0278,0.0245,0.0262,
調布 (Chofu),2022-06-01,21:01～22:00,0.0284,0.0242,0.0264,
調布 (Chofu),2022-06-01,20:01～21:00,0.0285,0.0244,0.0264,
調布 (Chofu),2022-06-01,19:01～20:00,0.0284,0.0242,0.0264,
調布 (Chofu),2022-06-01,18:01～19:00,0.0281,0.0246,0.0264,
調布 (Chofu),2022-06-01,17:01～18:00,0.0285,0.0252,0.0266,
調布 (Chofu),2022-06-01,16:01～17:00,0.0281,0.0251,0.0263,
調布 (Chofu),2022-06-01,15:01～16:00,0.0278,0.0245,0.0265,
調布 (Chofu),2022-06-01,14:01～15:00,0.0278,0.0241,0.0264,
調布 (Chofu),2022-06-01,13:01～14:00,0.0278,0.0238,0.0263,
調布 (Chofu),2022-06-01,12:01～13:00,0.0288,0.0248,0.0265,
調布 (Chofu),2022-06-01,11:01～12:00,0.0284,0.0247,0.0266,
調布 (Chofu),2022-06-01,10:01～11:00,0.0278,0.0242,0.0261,
調布 (Chofu),2022-06-01,09:01～10:00,0.0292,0.0244,0.0264,
調布 (Chofu),2022-06-01,08:01～09:00,0.0285,0.0249,0.0266,
調布 (Chofu),2022-06-01,07:01～08:00,0.0290,0.0253,0.0268,
調布 (Chofu),2022-06-01,06:01～07:00,0.0284,0.0244,0.0265,
調布 (Chofu),2022-06-01,05:01～06:00,0.0279,0.0245,0.0264,
調布 (Chofu),2022-06-01,04:01～05:00,0.0286,0.0251,0.0267,
調布 (Chofu),2022-06-01,03:01～04:00,0.0283,0.0254,0.0267,
調布 (Chofu),2022-06-01,02:01～03:00,0.0283,0.0246,0.0267,
調布 (Chofu),2022-06-01,01:01～02:00,0.0279,0.0240,0.0262,
調布 (Chofu),2022-06-01,00:01～01:00,0.0278,0.0245,0.0260,
調布 (Chofu),2022-05-31,23:01～24:00,0.0276,0.0244,0.0259,
調布 (Chofu),2022-05-31,22:01～23:00,0.0280,0.0242,0.0260,
調布 (Chofu),2022-05-31,21:01～22:00,0.0275,0.0245,0.0261,
調布 (Chofu),2022-05-31,20:01～21:00,0.0278,0.0236,0.0257,
調布 (Chofu),2022-05-31,19:01～20:00,0.0279,0.0239,0.0257,
調布 (Chofu),2022-05-31,18:01～19:00,0.0280,0.0241,0.0259,
調布 (Chofu),2022-05-31,17:01～18:00,0.0277,0.0237,0.0257,
調布 (Chofu),2022-05-31,16:01～17:00,0.0279,0.0241,0.0258,
調布 (Chofu),2022-05-31,15:01～16:00,0.0286,0.0240,0.0260,
調布 (Chofu),2022-05-31,14:01～15:00,0.0277,0.0239,0.0257,
調布 (Chofu),2022-05-31,13:01～14:00,0.0276,0.0242,0.0258,
調布 (Chofu),2022-05-31,12:01～13:00,0.0282,0.0247,0.0262,
調布 (Chofu),2022-05-31,11:01～12:00,0.0280,0.0244,0.0262,
調布 (Chofu),2022-05-31,10:01～11:00,0.0291,0.0247,0.0266,
調布 (Chofu),2022-05-31,09:01～10:00,0.0325,0.0263,0.0289,
調布 (Chofu),2022-05-31,08:01～09:00,0.0372,0.0298,0.0342,
調布 (Chofu),2022-05-31,07:01～08:00,0.0429,0.0336,0.0377,
調布 (Chofu),2022-05-31,06:01～07:00,0.0416,0.0354,0.0377,
調布 (Chofu),2022-05-31,05:01～06:00,0.0405,0.0339,0.0367,
調布 (Chofu),2022-05-31,04:01～05:00,0.0375,0.0326,0.0348,
調布 (Chofu),2022-05-31,03:01～04:00,0.0507,0.0336,0.0406,
調布 (Chofu),2022-05-31,02:01～03:00,0.0554,0.0460,0.0503,
調布 (Chofu),2022-05-31,01:01～02:00,0.0495,0.0329,0.0401,
調布 (Chofu),2022-05-31,00:01～01:00,0.0332,0.0246,0.0292,
調布 (Chofu),2022-05-30,23:01～24:00,0.0290,0.0250,0.0266,
調布 (Chofu),2022-05-30,22:01～23:00,0.0283,0.0245,0.0264,
調布 (Chofu),2022-05-30,21:01～22:00,0.0286,0.0249,0.0266,
調布 (Chofu),2022-05-30,20:01～21:00,0.0290,0.0251,0.0266,
調布 (Chofu),2022-05-30,19:01～20:00,0.0288,0.0253,0.0269,
調布 (Chofu),2022-05-30,18:01～19:00,0.0286,0.0252,0.0267,
調布 (Chofu),2022-05-30,17:01～18:00,0.0290,0.0245,0.0268,
調布 (Chofu),2022-05-30,16:01～17:00,0.0291,0.0251,0.0267,
調布 (Chofu),2022-05-30,15:01～16:00,0.0292,0.0256,0.0269,
調布 (Chofu),2022-05-30,14:01～15:00,0.0286,0.0251,0.0270,
調布 (Chofu),2022-05-30,13:01～14:00,0.0291,0.0255,0.0269,
調布 (Chofu),2022-05-30,12:01～13:00,0.0295,0.0254,0.0270,
調布 (Chofu),2022-05-30,11:01～12:00,0.0288,0.0245,0.0269,
調布 (Chofu),2022-05-30,10:01～11:00,0.0297,0.0252,0.0275,
調布 (Chofu),2022-05-30,09:01～10:00,0.0294,0.0259,0.0276,
調布 (Chofu),2022-05-30,08:01～09:00,0.0299,0.0258,0.0281,
調布 (Chofu),2022-05-30,07:01～08:00,0.0308,0.0266,0.0283,
調布 (Chofu),2022-05-30,06:01～07:00,0.0315,0.0274,0.0290,
調布 (Chofu),2022-05-30,05:01～06:00,0.0316,0.0277,0.0293,
調布 (Chofu),2022-05-30,04:01～05:00,0.0314,0.0277,0.0293,
調布 (Chofu),2022-05-30,03:01～04:00,0.0310,0.0262,0.0288,
調布 (Chofu),2022-05-30,02:01～03:00,0.0311,0.0260,0.0284,
調布 (Chofu),2022-05-30,01:01～02:00,0.0302,0.0262,0.0282,
調布 (Chofu),2022-05-30,00:01～01:00,0.0297,0.0267,0.0279,
